Location: Most
(50.5330°N, 13.6500°E)
Time: 19:12:37
(UTC+02:00)

ISS - Pass Details

Date: 19 May 2021
Orbit: 417 x 422 km, 51.6° (Epoch: 16 June)

Event Time Altitude Azimuth Distance (km) Brightness Sun altitude
Rises 23:42:30 0° 277° (W) 2,367 0.4 -17.4°
Reaches altitude 10° 23:44:36 10° 279° (W) 1,504 -0.6 -17.5°
Maximum altitude 23:47:59 73° 5° (N) 445 -3.6 -17.6°
Enters shadow 23:50:21 18° 88° (E) 1,103 -1.8 -17.8°
